Location: Newark
(52.3500°N, 175.9667°E)
Time: 03:47:23
(UTC+00:00)

S-56A Canister/Altair - Pass Details

Date: 28 April 2021
Orbit: 631 x 2501 km, 38.9° (Epoch: 18 May)

Event Time Altitude Azimuth Distance (km) Brightness Sun altitude
Rises 11:25:48 0° 254° (WSW) 5,072 11.7 -22.5°
Reaches altitude 10° 11:30:04 10° 245° (WSW) 3,745 10.9 -22.7°
Enters shadow 11:35:33 26° 214° (SW) 2,290 9.5 -22.8°
